Satellite: ORSTED
Catalog number: 25635
Epoch time:      103008.11353985
Element set:     801 
Inclination:       96.4469 deg
RA of node:         4.2825 deg
Eccentricity:    0.0146799
Arg of perigee:   100.3876 deg
Mean anomaly:     261.3892 deg
Mean motion:   14.44757333 rev/day
Decay rate:    3.5800E-006 rev/day^2
Epoch rev:           20395
Checksum:              316

Satellite: SUNSAT
Catalog number: 25636
Epoch time:      103006.93145616
Element set:     718 
Inclination:       96.4494 deg
RA of node:         2.1289 deg
Eccentricity:    0.0150524
Arg of perigee:   110.1588 deg
Mean anomaly:     251.5871 deg
Mean motion:   14.42911654 rev/day
Decay rate:    1.8099E-006 rev/day^2
Epoch rev:           20366
Checksum:              304

Satellite: UOSAT 12
Catalog number: 25693
Epoch time:      103008.50117395
Element set:     594 
Inclination:       64.5586 deg
RA of node:       136.4769 deg
Eccentricity:    0.0016659
Arg of perigee:   316.9932 deg
Mean anomaly:      42.9867 deg
Mean motion:   14.76334315 rev/day
Decay rate:    2.2500E-006 rev/day^2
Epoch rev:           20019
Checksum:              326

Satellite: FENGYUN 1C
Catalog number: 25730
Epoch time:      103007.90792835
Element set:     737 
Inclination:       98.6368 deg
RA of node:        33.8692 deg
Eccentricity:    0.0015243
Arg of perigee:   119.8483 deg
Mean anomaly:     240.4208 deg
Mean motion:   14.11728471 rev/day
Decay rate:   -2.3999E-007 rev/day^2
Epoch rev:           18875
Checksum:              341

Satellite: ASTRA 1H
Catalog number: 25785
Epoch time:      102364.00000000
Element set:     367 
Inclination:        0.0122 deg
RA of node:       319.8851 deg
Eccentricity:    0.0002995
Arg of perigee:    65.1991 deg
Mean anomaly:      92.3410 deg
Mean motion:    1.00273184 rev/day
Decay rate:    1.2799E-006 rev/day^2
Epoch rev:            1299
Checksum:              264

Satellite: TERRA
Catalog number: 25994
Epoch time:      103008.59156601
Element set:     580 
Inclination:       98.2009 deg
RA of node:        85.4315 deg
Eccentricity:    0.0001563
Arg of perigee:   103.5838 deg
Mean anomaly:     256.4418 deg
Mean motion:   14.57059954 rev/day
Decay rate:   -2.2292E-004 rev/day^2
Epoch rev:           16270
Checksum:              309

Satellite: JAWSAT
Catalog number: 26061
Epoch time:      103007.89557861
Element set:     735 
Inclination:      100.2120 deg
RA of node:        57.2186 deg
Eccentricity:    0.0035398
Arg of perigee:    38.0538 deg
Mean anomaly:     322.3133 deg
Mean motion:   14.37770881 rev/day
Decay rate:    5.1400E-006 rev/day^2
Epoch rev:           15454
Checksum:              285

Satellite: OPAL
Catalog number: 26063
Epoch time:      103007.66482610
Element set:     692 
Inclination:      100.2183 deg
RA of node:        54.6291 deg
Eccentricity:    0.0037419
Arg of perigee:    44.7314 deg
Mean anomaly:     315.6869 deg
Mean motion:   14.35461498 rev/day
Decay rate:    1.1099E-006 rev/day^2
Epoch rev:           15437
Checksum:              401

Satellite: ASUSAT
Catalog number: 26065
Epoch time:      103007.90128364
Element set:     703 
Inclination:      100.2169 deg
RA of node:        55.0486 deg
Eccentricity:    0.0037722
Arg of perigee:    45.8341 deg
Mean anomaly:     314.5929 deg
Mean motion:   14.35487373 rev/day
Decay rate:    1.1600E-006 rev/day^2
Epoch rev:           15440
Checksum:              377

Satellite: GOES 11
Catalog number: 26352
Epoch time:      103008.38228383
Element set:     966 
Inclination:        0.0488 deg
RA of node:       122.8484 deg
Eccentricity:    0.0004443
Arg of perigee:   149.9666 deg
Mean anomaly:     220.1795 deg
Mean motion:    1.00260676 rev/day
Decay rate:   -3.4999E-007 rev/day^2
Epoch rev:             982
Checksum:              318

Satellite: EUTELSAT W4
Catalog number: 26369
Epoch time:      102365.18880209
Element set:     334 
Inclination:        0.0264 deg
RA of node:         6.8932 deg
Eccentricity:    0.0003444
Arg of perigee:   271.2514 deg
Mean anomaly:     285.3827 deg
Mean motion:    1.00274671 rev/day
Decay rate:    1.6100E-006 rev/day^2
Epoch rev:             955
Checksum:              274

Satellite: FENGYUN 2B
Catalog number: 26382
Epoch time:      103006.71877624
Element set:     763 
Inclination:        0.6753 deg
RA of node:       286.7363 deg
Eccentricity:    0.0000463
Arg of perigee:   202.8587 deg
Mean anomaly:     339.6094 deg
Mean motion:    1.00269844 rev/day
Decay rate:   -3.2800E-006 rev/day^2
Epoch rev:             928
Checksum:              308

Satellite: EUTELSAT W1
Catalog number: 26487
Epoch time:      103008.23533257
Element set:     338 
Inclination:        0.0393 deg
RA of node:       104.8972 deg
Eccentricity:    0.0003894
Arg of perigee:   179.7033 deg
Mean anomaly:     277.4166 deg
Mean motion:    1.00273235 rev/day
Decay rate:    7.3000E-007 rev/day^2
Epoch rev:             860
Checksum:              386

Satellite: ASTRA 2B
Catalog number: 26494
Epoch time:      102364.00000000
Element set:     250 
Inclination:        0.0178 deg
RA of node:       354.5658 deg
Eccentricity:    0.0005000
Arg of perigee:   302.8402 deg
Mean anomaly:     189.0339 deg
Mean motion:    1.00276704 rev/day
Decay rate:    1.5800E-006 rev/day^2
Epoch rev:             841
Checksum:              227

Satellite: NOAA 16
Catalog number: 26536
Epoch time:      103007.55817561
Element set:     155 
Inclination:       98.8968 deg
RA of node:       316.1649 deg
Eccentricity:    0.0011428
Arg of perigee:    65.8317 deg
Mean anomaly:     294.4050 deg
Mean motion:   14.11877471 rev/day
Decay rate:    3.6500E-006 rev/day^2
Epoch rev:           11822
Checksum:              319

Satellite: SAUDISAT 1A
Catalog number: 26545
Epoch time:      103006.60670719
Element set:     395 
Inclination:       64.5565 deg
RA of node:       163.9533 deg
Eccentricity:    0.0054728
Arg of perigee:   245.5326 deg
Mean anomaly:     114.0018 deg
Mean motion:   14.78838702 rev/day
Decay rate:    1.3220E-005 rev/day^2
Epoch rev:           12287
Checksum:              303

Satellite: UNISAT
Catalog number: 26547
Epoch time:      103006.61417738
Element set:     413 
Inclination:       64.5551 deg
RA of node:       166.3233 deg
Eccentricity:    0.0061892
Arg of perigee:   247.9052 deg
Mean anomaly:     111.5481 deg
Mean motion:   14.79513407 rev/day
Decay rate:    2.0409E-005 rev/day^2
Epoch rev:           12283
Checksum:              387

Satellite: TIUNGSAT 1
Catalog number: 26548
Epoch time:      103006.89769777
Element set:     398 
Inclination:       64.5560 deg
RA of node:       156.4192 deg
Eccentricity:    0.0048162
Arg of perigee:   244.1564 deg
Mean anomaly:     115.4585 deg
Mean motion:   14.81091608 rev/day
Decay rate:    1.8630E-005 rev/day^2
Epoch rev:           12304
Checksum:              325

Satellite: SAUDISAT 1B
Catalog number: 26549
Epoch time:      103008.50680418
Element set:     661 
Inclination:       64.5518 deg
RA of node:       162.0185 deg
Eccentricity:    0.0059078
Arg of perigee:   245.4403 deg
Mean anomaly:     114.0537 deg
Mean motion:   14.77785752 rev/day
Decay rate:    1.1150E-005 rev/day^2
Epoch rev:           12307
Checksum:              294

Satellite: AMSAT OSCAR 40
Catalog number: 26609
Epoch time:      103007.26362170
Element set:     302 
Inclination:        7.9113 deg
RA of node:        71.9734 deg
Eccentricity:    0.7933625
Arg of perigee:   130.5063 deg
Mean anomaly:     330.0224 deg
Mean motion:    1.25596642 rev/day
Decay rate:   -1.0600E-006 rev/day^2
Epoch rev:            1005
Checksum:              252

Satellite: GOES 12
Catalog number: 26871
Epoch time:      103007.34929455
Element set:     760 
Inclination:        0.4464 deg
RA of node:        98.2598 deg
Eccentricity:    0.0001074
Arg of perigee:    54.5469 deg
Mean anomaly:     334.1481 deg
Mean motion:    1.00261309 rev/day
Decay rate:   -8.2999E-007 rev/day^2
Epoch rev:             541
Checksum:              305

Satellite: STARSHINE 3
Catalog number: 26929
Epoch time:      103008.20317338
Element set:     651 
Inclination:       67.0254 deg
RA of node:       102.4481 deg
Eccentricity:    0.0007841
Arg of perigee:   328.7154 deg
Mean anomaly:      31.3549 deg
Mean motion:   16.03297678 rev/day
Decay rate:    5.0935E-003 rev/day^2
Epoch rev:            7224
Checksum:              405

Satellite: PCSAT
Catalog number: 26931
Epoch time:      103007.88425358
Element set:     371 
Inclination:       67.0491 deg
RA of node:         2.9262 deg
Eccentricity:    0.0005394
Arg of perigee:   255.4740 deg
Mean anomaly:     104.5763 deg
Mean motion:   14.29088139 rev/day
Decay rate:    1.6200E-006 rev/day^2
Epoch rev:            6639
Checksum:              300

Satellite: SAPPHIRE
Catalog number: 26932
Epoch time:      103008.21748617
Element set:     366 
Inclination:       67.0560 deg
RA of node:         1.7842 deg
Eccentricity:    0.0006562
Arg of perigee:   238.4254 deg
Mean anomaly:     121.6205 deg
Mean motion:   14.29274700 rev/day
Decay rate:    5.1000E-007 rev/day^2
Epoch rev:            6646
Checksum:              274

Satellite: ENVISAT
Catalog number: 27386
Epoch time:      103008.46723352
Element set:     825 
Inclination:       98.5497 deg
RA of node:        77.6097 deg
Eccentricity:    0.0000885
Arg of perigee:    91.3343 deg
Mean anomaly:     268.7946 deg
Mean motion:   14.32251851 rev/day
Decay rate:    2.2700E-006 rev/day^2
Epoch rev:            4486
Checksum:              330

